Weather History for Miami, FL

Change the Weather History Date:

Sunday, June 23, 2013

  Actual Average Record
Temperature  
Mean Temperature 83 °F 83 °F  
Max Temperature 88 °F 90 °F 94 °F (1996)
Min Temperature 78 °F 76 °F 68 °F (1941)
Degree Days  
Heating Degree Days 0 0  
Month to date heating degree days 0 0  
Since 1 June heating degree days 0 0  
Since 1 July heating degree days 70 128  
Cooling Degree Days 18 18  
Month to date cooling degree days 418 405  
Year to date cooling degree days 1863 1761  
Since 1 June cooling degree days 418 405  
Growing Degree Days 30 (Base 50)    
Moisture  
Dew Point 72 °F    
Average Humidity 69    
Maximum Humidity 79    
Minimum Humidity 59    
Precipitation  
Precipitation 0.18 in 0.33 in 2.95 in (1936)
Month to date precipitation 4.89 7.40  
Year to date precipitation 24.26 22.75  
Snow  
Snow 0.00 in - - ()
Month to date snowfall 0.0  
Since 1 June snowfall 0.0  
Since 1 July snowfall 0.0  
Snow Depth 0.00 in    
Sea Level Pressure  
Sea Level Pressure 30.10 in    
Wind  
Wind Speed 11 mph (ESE)    
Max Wind Speed 23 mph    
Max Gust Speed 28 mph    
Visibility 10 miles    
Events Rain    
T = Trace of Precipitation, MM = Missing Value Source: NWS Daily Summary

Daily Weather History Graph

Daily Weather History Graph

Search for Another Location

Airport:

Trip Planner

Search our weather history database for the weather conditions in past years. The results will help you decide how hot, cold, wet, or windy it might be!

Date:

Astronomy

Jun. 23, 2013 Rise Set
Actual Time 6:31 AM EDT 8:16 PM EDT
Civil Twilight 6:05 AM EDT 8:42 PM EDT
Nautical Twilight 5:33 AM EDT 9:13 PM EDT
Astronomical Twilight 5:00 AM EDT 9:46 PM EDT
Moon 8:35 PM EDT (6/23) 6:40 AM EDT (6/23)
Length of Visible Light 14h 37m
Length of Day
13h 45m
Full, 100% of the Moon is Illuminated
Jun 23
Full
Jun 30
Last Quarter
Jul 8
New
Jul 15
First Quarter
Jul 22
Full

Hourly Weather History & Observations

Time (EDT) Temp. Heat Index Dew Point Humidity Pressure Visibility Wind Dir Wind Speed Gust Speed Precip Events Conditions
12:09 AM 77.0 °F - 69.8 °F 78% 30.12 in 10.0 mi Calm Calm - N/A   Mostly Cloudy
12:53 AM 79.0 °F - 73.0 °F 82% 30.10 in 10.0 mi Calm Calm - N/A   Overcast
1:53 AM 81.0 °F 86.2 °F 73.9 °F 79% 30.08 in 10.0 mi ESE 6.9 mph - N/A   Overcast
2:53 AM 80.1 °F 84.5 °F 73.9 °F 81% 30.07 in 10.0 mi SE 5.8 mph - N/A   Overcast
3:53 AM 81.0 °F 85.8 °F 73.0 °F 77% 30.06 in 10.0 mi SE 5.8 mph - N/A   Overcast
4:53 AM 81.0 °F 85.8 °F 73.0 °F 77% 30.06 in 10.0 mi ESE 5.8 mph - N/A   Mostly Cloudy
5:53 AM 81.0 °F 85.8 °F 73.0 °F 77% 30.06 in 10.0 mi ESE 4.6 mph - N/A   Scattered Clouds
6:53 AM 81.0 °F 85.8 °F 73.0 °F 77% 30.08 in 10.0 mi ESE 5.8 mph - N/A   Mostly Cloudy
7:53 AM 82.9 °F 88.0 °F 72.0 °F 69% 30.09 in 10.0 mi ESE 6.9 mph - N/A   Scattered Clouds
8:53 AM 82.9 °F 87.5 °F 71.1 °F 67% 30.10 in 10.0 mi ESE 11.5 mph - N/A   Scattered Clouds
9:53 AM 86.0 °F 91.5 °F 71.1 °F 61% 30.11 in 10.0 mi ESE 11.5 mph 20.7 mph N/A   Scattered Clouds
10:53 AM 86.0 °F 91.5 °F 71.1 °F 61% 30.12 in 10.0 mi ESE 13.8 mph - N/A   Mostly Cloudy
11:53 AM 87.1 °F 93.6 °F 72.0 °F 61% 30.12 in 10.0 mi ESE 12.7 mph - N/A   Mostly Cloudy
12:53 PM 84.0 °F 92.6 °F 75.9 °F 76% 30.12 in 10.0 mi ESE 11.5 mph - 0.06 in   Mostly Cloudy
1:53 PM 84.0 °F 89.6 °F 72.0 °F 67% 30.12 in 6.0 mi SE 19.6 mph 26.5 mph N/A   Haze
2:53 PM 86.0 °F 93.0 °F 73.0 °F 65% 30.09 in 10.0 mi SE 12.7 mph - 0.07 in   Mostly Cloudy
3:53 PM 88.0 °F 93.8 °F 71.1 °F 57% 30.10 in 10.0 mi SE 12.7 mph - N/A   Scattered Clouds
4:53 PM 87.1 °F 92.8 °F 71.1 °F 59% 30.08 in 10.0 mi ESE 12.7 mph - N/A   Scattered Clouds
5:53 PM 82.9 °F 88.8 °F 73.0 °F 72% 30.08 in 10.0 mi ESE 16.1 mph - 0.05 in Rain Light Rain
6:53 PM 84.0 °F 89.6 °F 72.0 °F 67% 30.08 in 10.0 mi East 12.7 mph - 0.00 in   Mostly Cloudy
7:53 PM 82.9 °F 88.0 °F 72.0 °F 69% 30.09 in 10.0 mi ESE 15.0 mph - 0.00 in   Mostly Cloudy
8:53 PM 82.0 °F 86.7 °F 72.0 °F 71% 30.10 in 10.0 mi ESE 10.4 mph - 0.00 in Rain Light Rain
9:53 PM 82.0 °F 86.3 °F 71.1 °F 69% 30.12 in 10.0 mi East 13.8 mph - 0.00 in   Scattered Clouds
10:53 PM 82.0 °F 86.7 °F 72.0 °F 71% 30.12 in 10.0 mi East 12.7 mph - N/A   Scattered Clouds
11:53 PM 82.0 °F 86.7 °F 72.0 °F 71% 30.13 in 10.0 mi East 13.8 mph - 0.00 in   Scattered Clouds